{"data":{"norad_id":69193,"intl_designator":"2026-114M","name":"STARLINK-36666","alt_names":[],"object_type":"PAYLOAD","status":"ACTIVE","operator":null,"country":"US","launch_date":"2026-05-25","launch_site_code":"AFETR","launch_vehicle":null,"mission":null,"orbit_class":"UNKNOWN","rcs_meters":null,"size_class":null,"mass_kg":null,"dimensions":null,"purposes":["comms"],"wikipedia_slug":null,"has_3d_model":false,"image_url":null,"decayed_at":null,"tle_current":{"epoch":"2026-09-20T00:50:47.245920Z","epoch_age_seconds":67180,"freshness":"FRESH","line1":"1 69193U 26114M   26263.03526905  .00015288  00000+0  46259-3 0  9993","line2":"2 69193  53.1572 115.9797 0001520  86.1570 273.9607 15.34406529 19370","mean_motion":15.34406529,"eccentricity":0.000152,"inclination_deg":53.1572,"raan_deg":115.9797,"arg_perigee_deg":86.157,"mean_anomaly_deg":273.9607,"bstar":0.00046259,"rev_number":1937,"period_min":93.847358752994,"perigee_km":461.64402994511,"apogee_km":463.72363947887,"semimajor_km":6840.820834712,"source":"CELESTRAK","updated_at":"2026-09-20T09:00:44.097861Z"}}}